AirNav   SIMCOM
 
 1650 users online  

1NJ7 Skytop Farms Heliport
Towaco, New Jersey, USA

GOING TO TOWACO?


FAA INFORMATION EFFECTIVE 14 SEPTEMBER 2017

Location

FAA Identifier: 1NJ7
Lat/Long: 40-56-50.3530N / 074-21-15.5430W
40-56.839217N / 074-21.259050W
40.9473203 / -74.3543175
(estimated)
Elevation: 850 ft. / 259 m (estimated)
Variation: 13W (1990)
From city: 5 miles W of TOWACO, NJ
Time zone: UTC -4 (UTC -5 during Standard Time)
Zip code: 07082

Heliport Operations

Heliport use: Private use. Permission required prior to landing
Activation date: 07/1992
Control tower: no
ARTCC: NEW YORK CENTER
FSS: MILLVILLE FLIGHT SERVICE STATION
Attendance: 0800-1700
Wind indicator: yes
Segmented circle: no

Heliport Communications

WX ASOS at CDW (5 nm SE): PHONE 973-575-4417
WX AWOS-3 at MMU (9 nm S): PHONE 973-290-0135
WX ASOS at TEB (15 nm SE): PHONE 201-393-0855
WX ASOS at EWR (17 nm SE): PHONE 973-621-2892
WX ASOS at FWN (19 nm NW): 118.525 (973-875-0859)
  • FREQ 131.77 AVBL FOR MONITORING.

Nearby radio navigation aids

VOR radial/distance  VOR name  Freq  Var
SAXr142/11.0SPARTA VORTAC115.7011W
TEBr305/14.5TETERBORO VOR/DME108.4011W
BWZr078/23.0BROADWAY VOR/DME114.2011W
STWr108/23.5STILLWATER VOR/DME109.6011W
LGAr306/24.1LA GUARDIA VOR/DME113.1012W
SBJr049/28.1SOLBERG VOR/DME112.9010W
CRIr325/29.0CANARSIE VOR/DME112.3011W
HUOr170/29.7HUGUENOT VOR/DME116.1011W
JFKr317/32.5KENNEDY VOR/DME115.9012W
COLr358/39.2COLTS NECK VOR/DME115.4011W

 
NDB name  Hdg/Dist  Freq  Var  ID
CHATHAM028/12.925413WCAT -.-. .- -
TETERBORO322/13.221412WTE - .
BRIDGE329/31.241412WOGY --- --. -.--
STANWYCK214/37.526112WSKU ... -.- ..-

Heliport Services

Runway Information

Helipad H1

Dimensions: 20 x 20 ft. / 6 x 6 m
Surface: asphalt
Traffic pattern: leftleft

Heliport Ownership and Management from official FAA records

Ownership: Privately-owned
Owner: ANTHONY PIO COSTA
GOWORLDVIEW DR
TOWACO, NJ 07082
Phone 201-334-7675
A. PIOCOSTA CELL#: 973-600-7226 OTHER EMAIL: CARMEN@PIOCOSTA.COM
Manager: ANTHONY PIO COSTA
GOWORLDVIEW DR
TOWACO, NJ 07082
Phone 201-334-7675

Instrument Procedures

There are no published instrument procedures at 1NJ7.

Some nearby airports with instrument procedures:

N07 - Lincoln Park Airport (2 nm E)
KCDW - Essex County Airport (5 nm SE)
KMMU - Morristown Municipal Airport (9 nm S)
4N1 - Greenwood Lake Airport (11 nm N)
KTEB - Teterboro Airport (15 nm SE)
KEWR - Newark Liberty International Airport (17 nm SE)
12N - Aeroflex-Andover Airport (18 nm W)
KFWN - Sussex Airport (19 nm NW)
KJRA - West 30th St Heliport (20 nm SE)
 
Loc | Ops | Rwys | IFR | FBO | Links
Com | Nav | Svcs | Stats | Notes


 
Area around 1NJ7 (Skytop Farms Heliport)
 
Road maps at: MapQuest Bing Google
 
Aerial photo
No photo
 
Sectional chart

 
Airport distance calculator
Flying to Skytop Farms Heliport? Find the distance to fly.

From to 1NJ7

Sunrise and sunset
Times for 26-Sep-2017
 Local
(UTC-4)
 Zulu
(UTC)
Morning civil twilight06:2210:22
Sunrise06:5010:50
Sunset18:4822:48
Evening civil twilight19:1523:15

Current date and time
Zulu (UTC)  26-Sep-2017 18:58:56
Local (UTC-4)  26-Sep-2017 14:58:56
 
METAR
KCDW 
5nm SE 
261853Z 15007KT 10SM CLR 29/21 A2999 RMK AO2 SLP160 T02890211
KMMU 
10nm S 
261845Z 12004KT 10SM SCT036 BKN260 28/19 A3000
KTEB 
15nm E 
261851Z 12007KT 10SM CLR 28/19 A2998 RMK AO2 SLP150 T02830194
K12N 
18nm W 
261854Z AUTO VRB03KT 30/20 A3000 RMK AO1 SLP152 T03000200
KEWR 
18nm SE 
261851Z VRB04KT 10SM FEW020 BKN260 28/19 A2999 RMK AO2 SLP154 T02830194 $
KFWN 
20nm NW 
261853Z AUTO VRB05KT 10SM CLR 31/19 A3000 RMK AO2 SLP154 T03060194
TAF
KTEB 
15nm E 
261720Z 2618/2718 14006KT P6SM FEW030 BKN250 FM270100 VRB04KT P6SM FEW008 BKN250 FM270500 VRB03KT 6SM BR BKN006 TEMPO 2708/2712 3SM BR BKN004 FM271300 05005KT P6SM SCT006 SCT100
KEWR 
18nm SE 
261720Z 2618/2724 14006KT P6SM FEW025 BKN250 FM270100 12004KT P6SM FEW007 BKN250 FM270500 04004KT P6SM SCT007 FM270800 04004KT P6SM BKN007 FM271300 03006KT P6SM SCT007 BKN100
NOTAMs
Click for the latest NOTAMs
NOTAMs are issued by the DoD/FAA and will open in a separate window not controlled by AirNav.

 

 
 

Would you like to see your business listed on this page?

 If your business provides an interesting product or service to pilots, flight crews, aircraft, or users of the Skytop Farms Heliport, you should consider listing it here.  To start the listing process, click on the button below
 
Add a business
 

Other Pages about Skytop Farms Heliport

Update a link
 
Copyright © AirNav, LLC. All rights reserved. Privacy Policy  Contact